Location: Blankensee
(53.5126°N, 14.3055°E)
Time: 18:47:24
(UTC+00:00)

Cosmos 1674 - Pass Details

Date: 08 August 2020
Orbit: 495 x 517 km, 82.5° (Epoch: 19 September)

Event Time Altitude Azimuth Distance (km) Brightness Sun altitude
Rises 01:15:10 0° 341° (NNW) 2,598 6.9 -15.3°
Reaches altitude 10° 01:17:26 10° 331° (NNW) 1,710 5.7 -15.1°
Maximum altitude 01:20:45 31° 269° (W) 894 3.6 -14.9°
Enters shadow 01:21:49 26° 236° (WSW) 1,006 3.6 -14.8°
